Terminal Aerodrome Forecast
Issued by NWS Dodge City, KS

Home | Current Version | Previous Version | Graphics & Text | Print | Product List | Glossary Off
Versions: 1 2 3 4 5 6 7 8 9 10 11 12 13 14 15 16 17 18 19 20 21 22 23 24 25 26 27 28 29 30 31 32 33 34 35 36

000
FTUS43 KDDC 301442 AAB
TAFDDC
TAF AMD
KDDC 301442Z 3015/3112 20006KT P6SM SKC
     FM301900 14009G15KT P6SM SKC
     FM302300 14008KT P6SM SKC=

USA.gov is the U.S. government's official web portal to all federal, state and local government web resources and services.